STARLINK-31838, 60130

Orbit data source: Space-Track

STARLINK-31838, 60130 is a payload satellite owned by SpaceX/Seattle (US) in LEO that was launched on Mon, 24 Jun 2024 UTC via an FALCON 9 launch vehicle from the Air Force Western Test Range (AFWTR). Payload-class satellites include a variety of spacecraft equipped with specific instruments for various scientific and technological missions. These include communications satellites like Starlink; space stations such as the ISS; scientific satellites like the Hubble; Earth observation satellites from companies like Planet Labs, Umbra, and HawkEye 360; GPS; miniature CubeSats for education and research; and military/defense satellites.

Loading next visibility...
Identifier
60130, 2024-118T
Orbit
LEO
Country
Flag of USUS
Related business
Manufacturer
SpaceX/Seattle
Mission
Operational Commercial Communications
Bus & Motor
STARLINK V2M, Unknown motor
Mass
730 kg wet, ~700 kg dry
Launch date (UTC)
2024-06-24 (2 years ago)
Launch vehicle
FALCON 9
Launch site
Air Force Western Test Range (AFWTR)
Object type
Payload
Rocket body
Debris
Shape & HBR
Box + 2 Pan, 17.7 m
Radar Cross Section
33.884 m², Large (>1 m²)

Expand to show TLE details & history
Last TLE update: 3 days ago

TLE from 3 days ago
0 STARLINK-31838
1 60130U 24118T   26032.82388020 -.00000953  00000-0 -20073-4 0  9995
2 60130  53.1597 193.4167 0000938  86.8370 273.2738 15.30196951 90208
Epoch: 2026-02-01T19:46Z
TLE epoch observation values (Epoch: 2026-02-01T19:46:23.249Z)
Latitude
-0.00002°
Longitude
124.79183°
Altitude
476.087 km
Speed
7.629 km/s
True Right ascension
12h 53m 40s
True Declination
0° 00' 00"
Sunlit
Object was in full shadow at epoch
Visualization orbit readout
Latitude
Unknown
Longitude
Unknown
Altitude
Unknown
Speed
Unknown
Apparent Right ascension
Unknown
Apparent Declination
Unknown
Sunlit
N/A
Visualization observer readout
Local Sidereal Time
15:28:37
Azimuth
Unknown
Elevation
Unknown
Doppler factor
Unknown
Orbital elements
Apogee altitude
476.124 km
Perigee altitude
474.838 km
Semi-major axis
6,853.618 km
Eccentricity
0.00009
Inclination
53.1597°
RAAN
193.4167°
Arg. of periapsis
86.837°
True anomaly
273.26307°
Mean anomaly
273.2738°
Eccentric anomaly
273.26843°
Mean motion
3.82528 °/min
Orbital period
94.11 mins
BSTAR
-0.000020073
Loading maneuver chart data...
Computing Atmospheric mass density...
Loading historical data...
Loading historical data...
Loading historical data...
Loading historical data...
Loading historical data...
Loading historical data...
Loading historical data...

Documentation

Showing up to 5 results
|